sat.trackr.live / text

‹ back to catalog

STARLINK-4198

NORAD 52858 · 2022-062AE

PAYLOAD ACTIVE UNKNOWN

§ Identity

Operator
Country
US
Launch date
2022-06-17
Launch site
AFETR
Launch vehicle
Mass (kg)
RCS (m²)

Purposes: comms

External: N2YO · Heavens-Above · Gunter

§ Orbital elements

Epoch: 2026-09-19T13:00:51.530112Z

Period
93.90 min
Inclination
53.1597°
Eccentricity
0.0001283
Mean motion
15.33539197 rev/d
Perigee alt
464.4 km
Apogee alt
466.1 km
Semi-major
6,843.4 km
B*
7.1981e-5
RAAN
222.3742°
Arg perigee
95.6811°
Mean anomaly
264.4338°
Rev number
23,534

§ Raw data

STARLINK-41981 52858U 22062AE  26262.54226308  .00001995  00000+0  71981-4 0  99912 52858  53.1597 222.3742 0001283  95.6811 264.4338 15.33539197235349

JSON: /api/v1/satellites/52858 · /tle

For live sub-satellite position, see the globe view (requires WebGL).

§ Visibility from observer

Set your observer location to see the next 7 days of passes ≥ 10°. The values pass through the URL so the page stays shareable.

No JS? Fill the form by hand. The geolocation button needs JavaScript.